Location: *
(43.6428°N, 11.5461°E)
Time: 23:39:21
(UTC+00:00)

Cosmos 1726 - Pass Details

Date: 21 October 2019
Orbit: 483 x 500 km, 82.5° (Epoch: 12 November)

Event Time Altitude Azimuth Distance (km) Brightness Sun altitude
Rises 16:54:36 0° 182° (S) 2,543 5.9 -6.7°
Reaches altitude 10° 16:56:42 10° 180° (S) 1,665 4.9 -7.1°
Maximum altitude 17:00:19 71° 97° (E) 518 2.0 -7.7°
Drops below altitude 10° 17:03:58 10° 13° (NNE) 1,674 4.6 -8.4°
Sets 17:06:05 0° 11° (N) 2,559 5.5 -8.8°
